This is the latest recevied weather packets stored in our database for station/object N6SPP. If no packets are shown the sender has not sent any weather packets the latest 10 day(s).
| Time | Temp. | Humidity | Pressure | Rain* | Wind** | Luminosity | Snow |
|---|---|---|---|---|---|---|---|
| 1778086123 | 18.33° C | 67% | 1022.7 hPa | 0 mm | - | 551 W/m² | - |
| 1778085820 | 17.78° C | 67% | 1022.7 hPa | 0 mm | - | 464 W/m² | - |
| 1778085518 | 17.78° C | 68% | 1022.7 hPa | 0 mm | - | 363 W/m² | - |
| 1778085212 | 17.78° C | 68% | 1022.8 hPa | 0 mm | - | 347 W/m² | - |
| 1778084908 | 18.33° C | 67% | 1022.6 hPa | 0 mm | - | 341 W/m² | - |
| 1778084606 | 17.78° C | 68% | 1022.6 hPa | 0 mm | - | 350 W/m² | - |
| 1778084303 | 16.67° C | 71% | 1022.6 hPa | 0 mm | - | 282 W/m² | - |
| 1778084000 | 16.67° C | 70% | 1022.7 hPa | 0 mm | - | 279 W/m² | - |
| 1778083692 | 16.67° C | 72% | 1022.5 hPa | 0 mm | - | 258 W/m² | - |
| 1778083389 | 16.67° C | 73% | 1022.5 hPa | 0 mm | - | 288 W/m² | - |
| 1778083087 | 16.11° C | 74% | 1022.5 hPa | 0 mm | - | 286 W/m² | - |
| 1778082784 | 16.11° C | 74% | 1022.8 hPa | 0 mm | - | 243 W/m² | - |
| 1778081656 | 15° C | 77% | 1022.9 hPa | 0 mm | - | 210 W/m² | - |
| 1778081354 | 15° C | 77% | 1022.8 hPa | 0 mm | - | 180 W/m² | - |
| 1778081050 | 15° C | 78% | 1022.8 hPa | 0 mm | - | 170 W/m² | - |
| 1778080749 | 15° C | 78% | 1022.7 hPa | 0 mm | - | 162 W/m² | - |
| 1778080445 | 14.44° C | 78% | 1022.7 hPa | 0 mm | - | 149 W/m² | - |
| 1778080143 | 14.44° C | 78% | 1022.7 hPa | 0 mm | - | 144 W/m² | - |
| 1778079839 | 15° C | 78% | 1022.7 hPa | 0 mm | - | 138 W/m² | - |
| 1778079536 | 15° C | 78% | 1022.7 hPa | 0 mm | - | 139 W/m² | - |
| 1778079232 | 14.44° C | 78% | 1022.7 hPa | 0 mm | - | 131 W/m² | - |
| 1778078930 | 14.44° C | 78% | 1022.7 hPa | 0 mm | - | 123 W/m² | - |
| 1778078626 | 14.44° C | 79% | 1022.7 hPa | 0 mm | - | 104 W/m² | - |
| 1778078325 | 14.44° C | 79% | 1022.7 hPa | 0 mm | - | 99 W/m² | - |
| 1778078021 | 13.89° C | 80% | 1022.5 hPa | 0 mm | - | 92 W/m² | - |
* Rain latest hour (hover to see other rain measurements)
** Current wind speed in m/s (hover to see current wind gust speed)